Hors Challenge

Silen'Run - Silenrieux (9.00 km)

samedi 11 septembre 2021

Vous pouvez trouver Le classement original sur : www.goaltiming.be
 
SILEN'RUN - SILENRIEUX
DISTANCE : 8.96 km
samedi 11 septembre 2021
 
Place dos NOM Catégorie Pl/cat temps temps/km Vitesse
01:00:00              
1 726 HASTIR FABRICE V2H 1 00:35:36 03:58 15.10
2 745 BECUE REMY SEH 1 00:36:11 04:02 14.86
3 723 CHAUSSIER GRÉGORY V1H 1 00:37:44 04:13 14.25
4 707 DE PESTEL BLAISE SEH 2 00:39:25 04:24 13.64
5 710 APPART THIERRY V1H 2 00:40:00 04:28 13.44
6 744 DENISON LOGAN SEH 3 00:40:43 04:33 13.20
7 725 CONTROLE ADRIEN SEH 4 00:40:52 04:34 13.15
8 740 NICOLAS SÉBASTIEN V1H 3 00:42:54 04:47 12.53
9 730 BACHELY GEOFFREY SEH 5 00:43:23 04:51 12.39
10 754 DERÈME ARDREWI SEH 6 00:43:56 04:54 12.24
11 702 VANDEBROEK RIK SEH 7 00:44:26 04:58 12.10
12 713 FERAUT NATHAN SEH 8 00:44:43 04:59 12.02
13 748 DUMONT DENIS V2H 2 00:45:46 05:06 11.75
14 737 CORDEWENER JOEL V1H 4 00:46:02 05:08 11.68
15 720 VAN WIJNSBERGHE OLIVIER V1H 5 00:46:32 05:12 11.55
16 700 CHANTEUX ALEXANDRE SEH 9 00:46:56 05:14 11.45
17 722 NICOLAS LOIC SEH 10 00:47:22 05:17 11.35
18 705 DUPUIS LAURENT V1H 6 00:47:37 05:19 11.29
19 711 MARC MARC SEH 11 00:47:45 05:20 11.26
20 738 LABILLOY FLORENT V1H 7 00:47:48 05:20 11.25
21 724 ES CHRISTIAN V3H 1 00:47:54 05:21 11.22
22 709 BOURGUIGNON GREGORY SEH 12 00:47:57 05:21 11.21
23 733 HANNOTEAU FREDERIC V1H 8 00:47:57 05:21 11.21
24 743 REMY LAURENT V1H 9 00:48:23 05:24 11.11
25 735 HENNEQUIN CAROLINE SED 1 00:48:24 05:24 11.11
26 732 MARMIGNON ARY SEH 13 00:48:28 05:25 11.09
27 728 SIBILLE THIBAUD SEH 14 00:49:06 05:29 10.95
28 708 MEGANCK DORIANE SED 2 00:49:10 05:29 10.93
29 727 ROLAND LAURENCE A1D 1 00:50:11 05:36 10.71
30 750 SOUPART CHARLES SEH 15 00:50:30 05:38 10.64
31 752 SOUPART PAUL V2H 3 00:50:31 05:38 10.64
32 704 MATHIEU JACK V2H 4 00:51:06 05:42 10.52
33 736 FION BENOIT V2H 5 00:51:08 05:42 10.51
34 721 DUTRONT CASSANDRA ESD 1 00:53:39 05:59 10.02
35 712 GRUMELLI DORIANO V1H 10 00:54:09 06:03 9.93
36 739 PARISELLE JACKY V3H 2 00:54:58 06:08 9.78
37 741 NOEL JONATHAN SEH 16 00:55:05 06:09 9.76
38 718 HUAUX JEAN-FRANCOIS SEH 17 00:55:06 06:09 9.76
39 729 DOOMS ANDRÉ V2H 6 00:55:22 06:11 9.71
40 747 DUMONT LUCIE SED 3 00:56:46 06:20 9.47
41 715 TRIDOT LORENZO SEH 18 00:57:16 06:24 9.39
42 753 GERARD CAMILLE SED 4 00:58:20 06:31 9.22
43 746 BUYCK PASCAL V2H 7 00:58:31 06:32 9.19
44 734 DEMOULIN GRÉGORY SEH 19 00:58:33 06:32 9.18
45 749 SOUPART CLAIRE SED 5 00:59:05 06:36 9.10
46 751 MYANT NATHALIE A2D 1 00:59:06 06:36 9.10
47 714 VERVY EMILIE SED 6 01:00:32 06:45 8.88
48 716 MARCHAL BRYAN SEH 20 01:00:35 06:46 8.87
49 731 JONNIAUX LAURENT V2H 8 01:02:43 07:00 8.57
50 719 DECOUX ARNAUD V1H 11 01:05:17 07:17 8.23
51 850 XXX XXX   01:06:54 07:28 8.04
               
Nos dernières videos